Location: Amsterdam
(30.7274°N, 84.4357°W)
Time: 19:38:04
(UTC+00:00)

Altair - Pass Details

Date: 13 August 2024
Orbit: 1501 x 1682 km, 47.2° (Epoch: 07 September)

Event Time Altitude Azimuth Distance (km) Brightness Sun altitude
Rises 21:26:41 0° 305° (NW) 4,802 10.7 36.3°
Reaches altitude 10° 21:30:14 10° 314° (NW) 3,788 10.2 35.5°
Maximum altitude 21:38:52 36° 19° (NNE) 2,251 8.5 33.6°
Drops below altitude 10° 21:47:14 10° 84° (E) 3,672 9.1 31.8°
Sets 21:50:35 0° 93° (E) 4,640 9.5 31.1°
